Content
SEND FEEDBACK

Daily
Averages
Monthly
Summary
Spain

TARRAGONA, SPAIN


Home > Europe > Spain
Elevation: 7 feet     Latitude: 41 07N     Longitude: 001 15E

WEATHER
 
SELECT A DAY
Number of Records: 189,265;   Date Range: 7/1/96 - 7/26/14
 
SHARE

PRINT THIS DATA

[ ← Previous Day ]
WEATHER ALMANAC - JANUARY 31, 2013
[ Next Day → ]
[ °C ]   °F
Weather ElementAverageHighLow
Temperature60.8 °F71.6 °F (2:00 pm)50 °F (8:30 am)
Dewpoint47.5 °F48.2 °F (10:00 am)44.6 °F (8:30 am)
Humidity63.4 %88 % (9:30 pm)43 % (2:00 pm)
Barometer30.35 in30.42 in (10:00 am)30.30 in (5:00 pm)
Wind Speed6.1 mph19.6 mph (4:00 pm)
Weather ElementAverage
Visibility6.2 mi
Wind DirectionESE (122.8 °)

Weather ElementTotal
Precipitation---
Heating Degree Days4.2 (Base 65)
Growing Degree Days10.8 (Base 50)
Averaged from 29 records on January 31, 2013
WEATHER CONDITIONS BREAKOUT
WIND DIRECTION BREAKOUT
WEATHER BY HOUR - JANUARY 31, 2013
[ °C ]   °F
Local TimeTemperatureDewpointHumidityBarometerVisibilityWind DirectionWind SpeedGust SpeedPrecipitationEventsConditions
7:30 AM53.6 °F46.4 °F77 %30.36 in6.2 miVariable2.3 mphPartly Cloudy
8:00 AM55.4 °F46.4 °F72 %30.36 in6.2 miVariable5.8 mphPartly Cloudy
8:30 AM50.0 °F44.6 °F82 %30.36 inNE (40°)8.1 mphClear
9:00 AM51.8 °F44.6 °F76 %30.39 inENE (60°)5.8 mphClear
9:30 AM55.4 °F46.4 °F72 %30.39 inVariable2.3 mphClear
10:00 AM57.2 °F48.2 °F72 %30.42 inVariable2.3 mphClear
10:30 AM62.6 °F48.2 °F59 %30.42 inCalmClear
11:00 AM62.6 °F48.2 °F59 %30.42 inCalmClear
11:30 AM64.4 °F48.2 °F56 %30.42 inCalmClear
12:00 PM66.2 °F48.2 °F52 %30.39 inWSW (240°)10.4 mphClear
12:30 PM68.0 °F48.2 °F49 %30.39 inWSW (250°)9.2 mphClear
1:30 PM69.8 °F48.2 °F46 %30.36 inSSW (210°)9.2 mphClear
2:00 PM71.6 °F48.2 °F43 %30.36 inSW (230°)8.1 mphClear
2:30 PM69.8 °F48.2 °F46 %30.33 inWest (280°)6.9 mphClear
3:00 PM69.8 °F48.2 °F46 %30.33 inWSW (240°)12.7 mphClear
3:30 PM69.8 °F48.2 °F46 %30.33 inWSW (240°)15.0 mphClear
4:00 PM68.0 °F48.2 °F49 %30.33 inWSW (250°)19.6 mphClear
4:30 PM68.0 °F48.2 °F49 %30.33 inSW (230°)13.8 mphClear
5:00 PM68.0 °F48.2 °F49 %30.30 inSSW (210°)9.2 mphClear
5:30 PM64.4 °F46.4 °F52 %30.30 inSSW (210°)9.2 mphClear
6:00 PM62.6 °F46.4 °F55 %30.30 inSSW (210°)8.1 mphClear
6:30 PM60.8 °F48.2 °F63 %30.33 inSSW (200°)3.5 mphClear
7:00 PM57.2 °F48.2 °F72 %30.33 inSSW (210°)4.6 mphClear
7:30 PM55.4 °F48.2 °F77 %30.33 inVariable1.2 mphClear
8:00 PM53.6 °F48.2 °F82 %30.33 inCalmClear
8:30 PM53.6 °F48.2 °F82 %30.33 inWSW (250°)3.5 mphClear
9:00 PM51.8 °F46.4 °F82 %30.33 inVariable1.2 mphClear
9:30 PM51.8 °F48.2 °F88 %30.33 inVariable2.3 mphClear
10:00 PM50.0 °F46.4 °F87 %30.33 inVariable1.2 mphClear
Hourly data recorded from LERS, located miles away from Tarragona, Spain







STORIES FROM OUR PARTNERS